Flag for U.S.A. Weather past 2 weeks in Portsmouth, Virginia, U.S.A.

Now
67 °F

Passing clouds.


Feels Like: 67 °F
Forecast: 65 / 85 °F
Wind: 10 mph from Southwest

Location: Norfolk Naval Air Station

Current Time: May 5, 2015 at 6:15:50 AM

Latest Report: May 5, 2015 at 5:59 AM


Visibility: 10 mi

Pressure: 30.30 "Hg

Humidity: 53%

Dew point: 49 °F

Location of PortsmouthLocation

Historic Weather in Portsmouth — Graph

°F

Portsmouth temperature yesterday

Maximum temperature yesterday: 85 °F (at 3:59 PM)
Minimum temperature yesterday: 63 °F (at 5:59 AM)
Average temperature yesterday: 75 °F

Past Weeks' High & Low Weather Summary

 TemperatureHumidityPressure
High85 °F (May 4, 3:59 PM)86% (Apr 25, 6:59 PM)30.32 "Hg (Apr 25, 6:59 PM)
Low47 °F (Apr 27, 2:59 AM)20% (Apr 24, 5:59 PM)29.63 "Hg (Apr 26, 7:59 AM)
Average63 °F54%29.88 "Hg
* Reported Apr 20 4:59 AM — May 5 4:59 AM, Portsmouth, Weather by CustomWeather, © 2015

Note: Actual official high and low records may vary slightly from our data, if they occured in-between our weather recording intervals... More about our weather records

Advertising

Portsmouth weather history for previous 24 hours

 ConditionsComfort  
Time TempWeatherWind HumidityBarometerVisibility
4:59 AM
Tue, May 5
68 °FClear.8 mph51%30.30 "Hg10 mi
3:59 AM69 °FClear.10 mph51%30.31 "Hg10 mi
2:59 AM69 °FClear.8 mph53%30.31 "Hg10 mi
1:59 AM70 °FClear.8 mph49%30.31 "Hg10 mi
12:59 AM71 °FClear.12 mph51%30.31 "Hg10 mi
11:59 PM
Mon, May 4
73 °FClear.14 mph48%30.30 "Hg10 mi
10:59 PM74 °FClear.13 mph48%30.30 "Hg10 mi
9:59 PM76 °FClear.9 mph42%30.29 "Hg10 mi
8:59 PM78 °FClear.8 mph36%30.27 "Hg10 mi
7:59 PM80 °FSunny.6 mph31%30.25 "Hg10 mi
6:59 PM82 °FSunny.8 mph31%30.24 "Hg10 mi
5:59 PM84 °FPassing clouds.10 mph29%30.25 "Hg10 mi
4:59 PM85 °FScattered clouds.10 mph29%30.25 "Hg10 mi
3:59 PM85 °FScattered clouds.9 mph30%30.26 "Hg10 mi
2:59 PM83 °FScattered clouds.7 mph27%30.28 "Hg10 mi
1:59 PM84 °FScattered clouds.8 mph27%30.29 "Hg10 mi
12:59 PM82 °FScattered clouds.13 mph33%30.30 "Hg10 mi
11:59 AM82 °FPassing clouds.9 mph35%30.32 "Hg10 mi
10:59 AM79 °FSunny.5 mph38%30.32 "Hg10 mi
9:59 AM74 °FSunny.7 mph48%30.32 "Hg10 mi
8:59 AM71 °FPassing clouds.6 mph49%30.31 "Hg10 mi
7:59 AM68 °FPassing clouds.5 mph53%30.30 "Hg10 mi
6:59 AM65 °FPassing clouds.6 mph56%30.29 "Hg10 mi
Weather by CustomWeather, © 2015

See weather overviewHow to use our weather pages